User: anonymous
Location: South Range
(44.4886°N, 65.7879°W)
Time: 10:34:58
(UTC-03:00)
Language:

Iridium 56 - Orbit

View from above orbital plane
View from above orbital plane
View from above satellite
View from above satellite

Ground track
Ground track

The orbit data is extracted from the following two-line orbital elements,

1 25170U 98010B   14107.46324262  .00000253  00000-0  83400-4 0  7105
2 25170 086.3939 113.9753 0002296 102.2531 050.6532 14.34213365845962
Epoch (UTC): 17 April 2014 11:07:04
Eccentricity: 0.0002296
inclination: 86.3939°
perigee height: 776 km
apogee height: 779 km
right ascension of ascending node: 113.9753°
argument of perigee: 102.2531°
revolutions per day: 14.34213365
mean anomaly at epoch: 50.6532°
orbit number at epoch: 84596

The dashed part of the orbit path shows where the satellite is in the earth's shadow,  

DLR